This is the latest recevied weather packets stored in our database for station/object DG4CB-13. If no packets are shown the sender has not sent any weather packets the latest 10 day(s).
| Time | Temp. | Humidity | Pressure | Rain* | Wind** | Luminosity | Snow |
|---|---|---|---|---|---|---|---|
| 1777977600 | 21.11° C | 54% | 1007.2 hPa | - | - | - | - |
| 1777977000 | 21.11° C | 55% | 1007.2 hPa | - | - | - | - |
| 1777976400 | 21.11° C | 55% | 1007.3 hPa | - | - | - | - |
| 1777975800 | 21.11° C | 56% | 1007.4 hPa | - | - | - | - |
| 1777975200 | 20.56° C | 62% | 1007.5 hPa | - | - | - | - |
| 1777974600 | 20° C | 60% | 1007.4 hPa | - | - | - | - |
| 1777974000 | 20° C | 64% | 1007.4 hPa | - | - | - | - |
| 1777973400 | 19.44° C | 67% | 1007.5 hPa | - | - | - | - |
| 1777972800 | 18.89° C | 68% | 1007.7 hPa | - | - | - | - |
| 1777972200 | 18.33° C | 68% | 1007.8 hPa | - | - | - | - |
| 1777971600 | 18.33° C | 68% | 1007.9 hPa | - | - | - | - |
| 1777971000 | 18.33° C | 71% | 1007.9 hPa | - | - | - | - |
| 1777970400 | 17.78° C | 72% | 1007.9 hPa | - | - | - | - |
| 1777969800 | 17.22° C | 74% | 1007.8 hPa | - | - | - | - |
| 1777969200 | 16.67° C | 75% | 1007.9 hPa | - | - | - | - |
| 1777968600 | 16.67° C | 76% | 1008 hPa | - | - | - | - |
| 1777968000 | 16.11° C | 77% | 1008 hPa | - | - | - | - |
| 1777967400 | 16.11° C | 80% | 1008.2 hPa | - | - | - | - |
| 1777966800 | 15.56° C | 82% | 1008.3 hPa | - | - | - | - |
| 1777966200 | 15° C | 83% | 1008.3 hPa | - | - | - | - |
| 1777965600 | 15° C | 85% | 1008.4 hPa | - | - | - | - |
| 1777965000 | 14.44° C | 86% | 1008.4 hPa | - | - | - | - |
| 1777964400 | 14.44° C | 86% | 1008.5 hPa | - | - | - | - |
| 1777963800 | 14.44° C | 87% | 1008.4 hPa | - | - | - | - |
| 1777963200 | 13.89° C | 87% | 1008.4 hPa | - | - | - | - |
* Rain since midnight (hover to see other rain measurements)
** Current wind speed in m/s (hover to see current wind gust speed)